This is the latest recevied weather packets stored in our database for station/object W7TRD. If no packets are shown the sender has not sent any weather packets the latest 10 day(s).
| Time | Temp. | Humidity | Pressure | Rain* | Wind** | Luminosity | Snow |
|---|---|---|---|---|---|---|---|
| 1788368398 | 17.78° C | 72% | 1008 hPa | 0 mm | - | 99 W/m² | - |
| 1788368098 | 18.33° C | 68% | 1007.7 hPa | 0 mm | - | 73 W/m² | - |
| 1788367798 | 18.33° C | 68% | 1007.7 hPa | 0 mm | - | 98 W/m² | - |
| 1788367493 | 18.33° C | 68% | 1007.6 hPa | 0 mm | - | 108 W/m² | - |
| 1788367192 | 17.78° C | 68% | 1007.5 hPa | 0 mm | - | 102 W/m² | - |
| 1788366888 | 17.78° C | 69% | 1007.6 hPa | 0 mm | - | 82 W/m² | - |
| 1788366585 | 17.78° C | 71% | 1007.6 hPa | 0 mm | - | 67 W/m² | - |
| 1788366281 | 17.78° C | 71% | 1007.7 hPa | 0 mm | - | 89 W/m² | - |
| 1788365981 | 17.78° C | 70% | 1007.7 hPa | 0 mm | - | 129 W/m² | - |
| 1788365676 | 17.22° C | 72% | 1007.9 hPa | 0 mm | - | 126 W/m² | - |
| 1788365372 | 17.22° C | 72% | 1007.7 hPa | 0 mm | - | 101 W/m² | - |
| 1788365067 | 17.22° C | 72% | 1007.8 hPa | 0 mm | - | 113 W/m² | - |
| 1788364765 | 17.22° C | 72% | 1008.1 hPa | 0 mm | - | 86 W/m² | - |
| 1788364460 | 17.22° C | 72% | 1007.9 hPa | 0 mm | - | 88 W/m² | - |
| 1788364154 | 17.22° C | 73% | 1007.6 hPa | 0 mm | - | 67 W/m² | - |
| 1788363850 | 17.22° C | 73% | 1008.1 hPa | 0 mm | - | 75 W/m² | - |
| 1788363549 | 17.22° C | 72% | 1007.7 hPa | 0 mm | - | 77 W/m² | - |
| 1788363252 | 17.22° C | 73% | 1007.9 hPa | 0 mm | - | 114 W/m² | - |
| 1788362944 | 16.67° C | 73% | 1008 hPa | 0 mm | - | 84 W/m² | - |
| 1788362640 | 16.67° C | 73% | 1007.9 hPa | 0 mm | - | 94 W/m² | - |
| 1788362335 | 16.67° C | 74% | 1008.1 hPa | 0 mm | - | 53 W/m² | - |
| 1788362031 | 16.67° C | 74% | 1008.1 hPa | 0 mm | - | 60 W/m² | - |
| 1788361731 | 16.67° C | 73% | 1008.2 hPa | 0 mm | - | 77 W/m² | - |
| 1788361427 | 16.67° C | 74% | 1008.2 hPa | 0 mm | - | 82 W/m² | - |
| 1788361126 | 16.67° C | 74% | 1008.7 hPa | 0 mm | - | 81 W/m² | - |
* Rain latest hour (hover to see other rain measurements)
** Current wind speed in m/s (hover to see current wind gust speed)